Flag for U.S.A. Weather past 2 weeks in West Covina, California, U.S.A.

Now
68 °F

Sunny.


Feels Like: 68 °F
Forecast: 54 / 70 °F
Wind: 3 mph from North

Location: Fullerton Municipal Airport


UV Index: 0 (Low)

Visibility: 10 mi


Pressure: 29.90 "Hg

Humidity: 39%

Dew point: 42 °F

Location of West CovinaLocation

Historic Weather in West Covina

°F

West Covina temperature yesterday

Maximum temperature yesterday: 73 °F (at 3:53 PM)
Minimum temperature yesterday: 56 °F (at 5:53 AM)
Average temperature yesterday: 65 °F

Past Weeks' High & Low Weather Summary

 TemperatureHumidityPressure
High87 °F (Apr 14, 2:53 PM)90% (Apr 21, 1:53 AM)30.05 "Hg (Apr 21, 1:53 AM)
Low53 °F (Apr 10, 4:53 AM)22% (Apr 9, 7:53 PM)29.78 "Hg (Apr 16, 4:53 PM)
Average65 °F62%29.93 "Hg
* Reported Apr 9 6:53 PM — Apr 24 6:53 PM, West Covina, Weather by CustomWeather, © 2014

Note: Actual official high and low records may vary slightly from our data, if they occured in-between our weather recording intervals... More about our weather records

Advertising

Historic Weather Conditions — Data for Previous 24 hours

 ConditionsComfort  
Time TempWeatherWind HumidityBarometerVisibility
6:53 PM
Apr 24
71 °FSunny.3 mph34%29.90 "Hg10 mi
5:53 PM70 °FSunny.12 mph47%29.89 "Hg10 mi
4:53 PM73 °FSunny.12 mph37%29.88 "Hg10 mi
3:53 PM76 °FSunny.8 mph37%29.89 "Hg10 mi
2:53 PM78 °FSunny.8 mph35%29.90 "Hg10 mi
1:53 PM78 °FSunny.8 mph32%29.92 "Hg10 mi
12:53 PM78 °FSunny.N/A36%29.94 "Hg10 mi
11:53 AM75 °FSunny.No wind34%29.97 "Hg10 mi
10:53 AM72 °FSunny.3 mph43%29.98 "Hg10 mi
9:53 AM69 °FSunny.3 mph51%29.98 "Hg10 mi
8:53 AM65 °FSunny.No wind63%29.98 "Hg10 mi
7:53 AM62 °FSunny.No wind60%29.98 "Hg10 mi
6:53 AM56 °FClear.No wind70%29.96 "Hg10 mi
5:53 AM54 °FClear.No wind74%29.94 "Hg10 mi
4:53 AM55 °FClear.3 mph72%29.93 "Hg10 mi
3:53 AM57 °FClear.3 mph67%29.91 "Hg10 mi
2:53 AM57 °FClear.6 mph64%29.92 "Hg10 mi
1:53 AM59 °FClear.3 mph67%29.93 "Hg10 mi
12:53 AM59 °FClear.No wind67%29.94 "Hg10 mi
11:53 PM
Apr 23
61 °FClear.No wind70%29.93 "Hg10 mi
10:53 PM62 °FClear.No wind67%29.93 "Hg10 mi
9:53 PM65 °FClear.No wind47%29.93 "Hg10 mi
8:53 PM66 °FClear.5 mph40%29.92 "Hg10 mi
Weather by CustomWeather, © 2014

See weather overview